Home > Time Zones > World Clock > Weather > Serbia > Niš > Past weeks

Flag for Serbia Weather past 2 weeks in Niš, Serbia

Now
46 °F

Partly sunny.


Feels Like: 42 °F
Forecast: 34 / 60 °F
Wind: 9 mph from Northwest

Location: Nis Airport

Current Time: Mar 29, 2015 at 10:23:50 AM

Latest Report: Mar 29, 2015 at 10:00 AM


Visibility: N/A

Pressure: 29.89 "Hg

Humidity: 71%

Dew point: 37 °F

Location of NišLocation

Historic Weather in Niš — Graph

°F

Niš temperature yesterday

Maximum temperature yesterday: 48 °F (at 12:00 AM)
Minimum temperature yesterday: 43 °F (at 6:00 AM)
Average temperature yesterday: 44 °F

Past Weeks' High & Low Weather Summary

 TemperatureHumidityPressure
High68 °F (Mar 26, 2:00 PM)100% (Mar 15, 7:30 AM)30.54 "Hg (Mar 15, 7:30 AM)
Low25 °F (Mar 20, 3:00 AM)16% (Mar 21, 6:00 PM)29.62 "Hg (Mar 27, 12:30 PM)
Average47 °F63%30.11 "Hg
* Reported Mar 14 8:00 AM — Mar 29 9:00 AM, Niš, Weather by CustomWeather, © 2015

Note: Actual official high and low records may vary slightly from our data, if they occured in-between our weather recording intervals... More about our weather records

Advertising

Niš weather history for previous 24 hours

 ConditionsComfort  
Time TempWeatherWind HumidityBarometerVisibility
9:00 AM
Sun, Mar 29
46 °FPartly sunny.13 mph71%29.89 "HgN/A
8:30 AM45 °FPartly sunny.8 mph76%29.89 "HgN/A
8:00 AM45 °FPartly sunny.8 mph76%29.89 "HgN/A
7:30 AM45 °FPartly sunny.10 mph76%29.89 "HgN/A
7:00 AM45 °FPassing clouds.9 mph76%29.86 "HgN/A
6:30 AM45 °FPartly cloudy.12 mph76%29.86 "HgN/A
6:00 AM45 °FPartly cloudy.13 mph76%29.86 "HgN/A
5:30 AM45 °FPartly cloudy.10 mph76%29.86 "HgN/A
5:00 AM45 °FPartly cloudy.9 mph76%29.86 "HgN/A
4:30 AM45 °FPartly cloudy.12 mph76%29.86 "HgN/A
4:00 AM45 °FPartly cloudy.10 mph76%29.86 "HgN/A
3:30 AM45 °FPartly cloudy.13 mph76%29.86 "HgN/A
3:00 AM45 °FPartly cloudy.10 mph76%29.86 "HgN/A
1:30 AM45 °FPartly cloudy.12 mph81%29.86 "HgN/A
1:00 AM45 °FPartly cloudy.12 mph81%29.86 "HgN/A
12:30 AM45 °FPartly cloudy.12 mph81%29.86 "HgN/A
12:00 AM45 °FPartly cloudy.3 mph81%29.86 "HgN/A
11:30 PM
Sat, Mar 28
45 °FLight rain. Partly cloudy.6 mph81%29.86 "HgN/A
11:00 PM45 °FLight rain. Partly cloudy.13 mph81%29.86 "HgN/A
10:30 PM45 °FLight rain. Partly cloudy.15 mph81%29.86 "HgN/A
10:00 PM45 °FLight rain. Partly cloudy.14 mph81%29.86 "HgN/A
9:30 PM45 °FLight rain. Partly cloudy.12 mph81%29.86 "HgN/A
9:00 PM45 °FLight rain. Partly cloudy.10 mph81%29.86 "HgN/A
8:30 PM45 °FLight rain. Partly cloudy.13 mph81%29.86 "HgN/A
8:00 PM45 °FLight rain. Partly cloudy.12 mph81%29.86 "HgN/A
7:30 PM45 °FLight rain. Partly cloudy.15 mph81%29.86 "HgN/A
7:00 PM45 °FLight rain. Partly cloudy.16 mph81%29.83 "HgN/A
6:30 PM43 °FLight rain. Partly cloudy.15 mph87%29.83 "HgN/A
6:00 PM43 °FPartly cloudy.13 mph87%29.83 "HgN/A
5:30 PM43 °FBroken clouds.13 mph87%29.83 "HgN/A
5:00 PM43 °FBroken clouds.15 mph87%29.83 "HgN/A
4:30 PM43 °FLight rain. Broken clouds.15 mph87%29.83 "HgN/A
4:00 PM43 °FRain. Mostly cloudy.16 mph87%29.83 "HgN/A
3:30 PM43 °FRain. Mostly cloudy.16 mph87%29.83 "HgN/A
3:00 PM43 °FRain. Mostly cloudy.14 mph93%29.83 "HgN/A
2:30 PM43 °FRain. Mostly cloudy.14 mph93%29.80 "HgN/A
2:00 PM45 °FRain. Mostly cloudy.15 mph87%29.80 "HgN/A
1:30 PM45 °FHeavy rain. Mostly cloudy.13 mph87%29.80 "HgN/A
1:00 PM45 °FHeavy rain. Mostly cloudy.13 mph87%29.80 "HgN/A
12:30 PM43 °FRain. Broken clouds.12 mph93%29.80 "HgN/A
12:00 PM43 °FLight rain. Broken clouds.9 mph87%29.80 "HgN/A
11:30 AM43 °FLight rain. Broken clouds.7 mph87%29.80 "HgN/A
11:00 AM43 °FLight rain. Broken clouds.8 mph87%29.80 "HgN/A
10:30 AM43 °FBroken clouds.10 mph87%29.80 "HgN/A
10:00 AM43 °FBroken clouds.16 mph87%29.80 "HgN/A
Weather by CustomWeather, © 2015

See weather overviewHow to use our weather pages